Home   Weather   Las Cruces   Past weeks

Flag for USA Past Weather in Las Cruces, New Mexico, USA — Yesterday and Last 2 Weeks

Now
70 °F

Passing clouds.


Feels Like: 70 °F
Forecast: 64 / 79 °F
Wind: 10 mph from Southeast

Location: Las Cruces International

Current Time: Aug 31, 2016 at 12:22:40 AM

Latest Report: Aug 30, 2016 at 11:55 PM


Visibility: 10 mi

Pressure: 30.21 "Hg (26.32 "Hg at 1187m altitude)

Humidity: 71%

Dew Point: 60 °F

Location of Las CrucesLocation

Past Weather in Las Cruces — Graph

°F

Las Cruces Temperature Yesterday

Maximum temperature yesterday: 82 °F (at 5:15 PM)
Minimum temperature yesterday: 62 °F (at 6:15 AM)
Average temperature yesterday: 73 °F

High & Low Weather Summary for the Past Weeks

 TemperatureHumidityPressure
High93 °F (Aug 19, 3:55 PM)97% (Aug 22, 2:55 AM)30.26 "Hg (Aug 22, 2:55 AM)
Low61 °F (Aug 22, 5:55 AM)12% (Aug 16, 4:15 PM)29.95 "Hg (Aug 19, 4:55 PM)
Average75 °F49%30.14 "Hg
* Reported Aug 15 11:15 PM — Aug 30 11:15 PM, Las Cruces, Weather by CustomWeather, © 2016

Note: Actual official high and low records may vary slightly from our data, if they occured in-between our weather recording intervals... More about our weather records

Advertising

Las Cruces Weather History for the Previous 24 Hours

Scroll right to see more
 ConditionsComfort  
Time TempWeatherWind HumidityBarometerVisibility
11:15 PM
Tue, Aug 30
70 °FOvercast.10 mph71%30.21 "Hg10 mi
10:55 PM71 °FOvercast.12 mph69%30.21 "Hg10 mi
10:35 PM71 °FOvercast.16 mph67%30.21 "Hg10 mi
10:15 PM71 °FOvercast.15 mph65%30.20 "Hg10 mi
9:55 PM72 °FPassing clouds.15 mph62%30.20 "Hg10 mi
9:35 PM72 °FPassing clouds.15 mph63%30.19 "Hg10 mi
9:15 PM72 °FPassing clouds.12 mph64%30.19 "Hg10 mi
8:55 PM73 °FClear.12 mph63%30.18 "Hg10 mi
8:15 PM74 °FSunny.12 mph54%30.16 "Hg10 mi
7:55 PM75 °FSunny.12 mph53%30.16 "Hg10 mi
7:15 PM77 °FSunny.13 mph49%30.15 "Hg10 mi
6:55 PM78 °FSunny.12 mph48%30.14 "Hg10 mi
6:35 PM79 °FSunny.16 mph46%30.14 "Hg10 mi
6:15 PM81 °FSunny.15 mph41%30.14 "Hg10 mi
5:55 PM80 °FSunny.13 mph43%30.14 "Hg10 mi
5:15 PM82 °FScattered clouds.15 mph35%30.14 "Hg10 mi
4:55 PM82 °FSunny.7 mph36%30.15 "Hg10 mi
4:35 PM81 °FSunny.9 mph39%30.15 "Hg10 mi
4:15 PM81 °FSunny.12 mph40%30.16 "Hg10 mi
3:55 PM81 °FSunny.7 mph39%30.16 "Hg10 mi
3:35 PM82 °FScattered clouds.7 mph38%30.16 "Hg10 mi
3:15 PM81 °FScattered clouds.9 mph39%30.16 "Hg10 mi
2:55 PM82 °FSunny.7 mph39%30.18 "Hg10 mi
2:35 PM82 °FSunny.14 mph38%30.18 "Hg10 mi
2:15 PM81 °FSunny.12 mph40%30.19 "Hg10 mi
1:55 PM80 °FSunny.12 mph41%30.20 "Hg10 mi
1:35 PM79 °FSunny.6 mph42%30.21 "Hg10 mi
1:15 PM78 °FScattered clouds.7 mph43%30.22 "Hg10 mi
12:55 PM78 °FScattered clouds.8 mph43%30.23 "Hg10 mi
12:15 PM76 °FSunny.7 mph44%30.24 "Hg10 mi
11:55 AM76 °FSunny.5 mph45%30.25 "Hg10 mi
11:35 AM76 °FSunny.7 mph47%30.26 "Hg10 mi
11:15 AM75 °FSunny.7 mph48%30.26 "Hg10 mi
10:55 AM75 °FSunny.6 mph49%30.26 "Hg10 mi
10:35 AM74 °FSunny.5 mph49%30.26 "Hg10 mi
10:15 AM73 °FSunny.6 mph53%30.25 "Hg10 mi
9:55 AM72 °FSunny.5 mph53%30.25 "Hg10 mi
9:35 AM72 °FSunny.8 mph56%30.24 "Hg10 mi
9:15 AM71 °FSunny.7 mph58%30.24 "Hg10 mi
8:55 AM70 °FSunny.7 mph58%30.24 "Hg10 mi
8:35 AM69 °FSunny.7 mph60%30.24 "Hg10 mi
8:15 AM69 °FSunny.6 mph60%30.24 "Hg10 mi
7:55 AM68 °FSunny.6 mph63%30.24 "Hg10 mi
7:35 AM65 °FClear.3 mph70%30.24 "Hg10 mi
7:15 AM63 °FClear.6 mph76%30.23 "Hg10 mi
6:55 AM63 °FClear.6 mph77%30.23 "Hg10 mi
6:15 AM62 °FClear.5 mph87%30.23 "Hg10 mi
5:55 AM63 °FClear.3 mph83%30.23 "Hg10 mi
5:15 AM65 °FClear.No wind80%30.22 "Hg10 mi
4:55 AM65 °FClear.3 mph78%30.21 "Hg10 mi
4:35 AM66 °FClear.5 mph76%30.21 "Hg10 mi
4:15 AM67 °FClear.7 mph74%30.22 "Hg10 mi
3:55 AM67 °FClear.8 mph72%30.22 "Hg10 mi
3:35 AM67 °FClear.6 mph70%30.23 "Hg10 mi
3:15 AM68 °FClear.10 mph69%30.23 "Hg10 mi
2:55 AM68 °FPassing clouds.9 mph69%30.23 "Hg10 mi
2:15 AM68 °FClear.10 mph69%30.23 "Hg10 mi
1:55 AM68 °FClear.8 mph68%30.23 "Hg10 mi
1:15 AM68 °FClear.9 mph66%30.23 "Hg10 mi
12:55 AM69 °FClear.12 mph65%30.24 "Hg10 mi
12:15 AM70 °FClear.10 mph62%30.23 "Hg10 mi
Weather by CustomWeather, © 2016

See weather overviewHow to use our weather pages